Regional Weather Roundup
Issued by NWS New Orleans/Baton Rouge, LA

Home | Current Version | Previous Version | Graphics & Text | Print | Product List | Glossary On
Versions: 1 2 3 4 5 6 7 8 9 10 11 12 13 14 15 16 17 18 19 20 21 22 23 24 25 26 27 28 29 30 31 32 33 34 35 36 37 38 39 40 41 42 43 44 45 46 47 48 49 50
367
ASUS44 KLIX 281405
RWRLIX
NEW ORLEANS REGIONAL WEATHER ROUNDUP
NATIONAL WEATHER SERVICE NEW ORLEANS LA
800 AM CST FRI NOV 28 2014

NOTE: "FAIR" INDICATES FEW OR NO CLOUDS BELOW 12,000 FEET WITH NO
      SIGNIFICANT WEATHER AND/OR OBSTRUCTIONS TO VISIBILITY.
      SKY/WX - SKY CONDITION AND SIGNIFICANT WEATHER.
      TMP - AIR TEMPERATURE.     DP    - DEWPOINT TEMPERATURE.
      RH  - RELATIVE HUMIDITY.   PRES  - PRESSURE.
      HI  - HEAT INDEX.          WCI   - WIND CHILL INDEX.

*  THESE STATIONS ARE NOT NWS OR FAA STATIONS AND ARE NOT UNDER
   NWS QUALITY CONTROL.

LAZ038-040-048-061>063-065>067-069-281500-
SOUTHEAST LOUISIANA

CITY           SKY/WX    TMP DP  RH WIND       PRES   REMARKS
N.O. AUDUBON     N/A     47  39  73 MISG        N/A
N.O. INTL ARPT SUNNY     47  36  65 E8        30.43S
N.O. LAKEFRONT SUNNY     46  37  71 E10       30.43F
N.O. DOWNTOWN*   N/A     45  34  65 NE5       30.43S
SLIDELL        SUNNY     37  33  85 N5        30.44S WCI  33
BATON ROUGE    SUNNY     39  33  79 E7        30.44R WCI  34
BOOTHVILLE     SUNNY     53  43  68 NE8       30.42S
BELLE CHASSE   SUNNY     47  37  68 E9        30.42F
BOGALUSA*        N/A     36  33  89 CALM      30.47R
NEW ROADS*       N/A     40  32  74 E5        30.44S
GONZALES*        N/A     42  38  86 CALM      30.42S
HAMMOND*       SUNNY     41  32  70 E5        30.45S
HOUMA*         SUNNY     43  39  87 NE5       30.43R
PORT FOURCHON* SUNNY     52  45  76 NE13      30.44S

$$

MSZ070-080>082-281500-
SOUTHERN MISSISSIPPI

CITY           SKY/WX    TMP DP  RH WIND       PRES   REMARKS
MCCOMB         SUNNY     37  31  78 E5        30.43S WCI  33
GULFPORT       SUNNY     40  32  73 NE6       30.44S
BILOXI         SUNNY     39  31  72 NE6       30.44S
PASCAGOULA     SUNNY     39  32  76 CALM      30.45R
STENNIS ARPT*  SUNNY     39  30  70 VRB6      30.45S WCI  35

$$

COASTAL OBSERVATIONS
LAKE AND NEARSHORE STATIONS

STATION/POSITION TIME  TEMP    WIND        PRES    WAVE
                       AIR SEA DIR/SP/G            HT/PER
                 (UTC) (F)     (DEG/KT/KT) (MB)    (FT/S)
PASCAGOULA       1400   40      40/  6/  8 1030.3
WAVELAND YACHT   1400   41      60/  8/ 11 1029.8
GRAND ISLE       1400   51 59   70/ 12/ 16 1030.2
SOUTHWEST PASS   1400   53                 1029.8
NEW CANAL        1400   45 52   80/  9/ 12 1030.6
SHELL BEACH      1400   48 50   60/ 11/ 14 1030.2

OFFSHORE STATIONS

STATION/POSITION TIME  TEMP    WIND        PRES    WAVE
                       AIR SEA DIR/SP/G            HT/PER
                 (UTC) (F)     (DEG/KT/KT) (MB)    (FT/S)
64 S DAUPHIN ISL 1310   54 71   70/ 12/ 16 1030.1    4/ 6

$$




USA.gov is the U.S. government's official web portal to all federal, state and local government web resources and services.